EW3967 Weather Reports


time (UTC)temp
F
wind
direction
speed
knots
gust
knots
rain 1hr
in
rain 24hr
in
rain mn
in
humidity
%
barometer
mb
20260906201538 101 275 0.9 6.1 0.00 0.00 0.00 33 1009.6
20260906200033 101 127 2.6 8.7 0.00 0.00 0.00 32 1010.0
20260906194532 101 238 0.9 7.0 0.00 0.00 0.00 33 1010.1
20260906193027 100 167 3.5 9.6 0.00 0.00 0.00 34 1010.4
20260906191530 100 162 5.2 11.3 0.00 0.00 0.00 35 1010.5
20260906190026 99 71 1.7 9.6 0.00 0.00 0.00 33 1010.7
20260906184526 100 222 5.2 9.6 0.00 0.00 0.00 35 1010.9
20260906183024 100 125 2.6 5.2 0.00 0.00 0.00 37 1011.0
20260906181523 99 243 2.6 7.0 0.00 0.00 0.00 37 1011.4
20260906180035 99 240 0.0 7.8 0.00 0.00 0.00 39 1011.8
20260906174518 97 133 0.9 6.1 0.00 0.00 0.00 40 1012.0
20260906173117 97 67 5.2 7.8 0.00 0.00 0.00 40 1012.2
20260906171511 96 254 0.0 3.5 0.00 0.00 0.00 44 1012.5
20260906170010 95 54 1.7 6.1 0.00 0.00 0.00 42 1012.7
20260906164509 95 331 2.6 5.2 0.00 0.00 0.00 43 1012.8
20260906163009 97 127 0.9 2.6 0.00 0.00 0.00 41 1012.9
20260906161513 96 169 0.9 3.5 0.00 0.00 0.00 44 1012.9
20260906160004 94 148 0.9 3.5 0.00 0.00 0.00 48 1012.9
20260906154601 92 289 0.9 2.6 0.00 0.00 0.00 52 1012.9
20260906153057 92 264 1.7 5.2 0.00 0.00 0.00 49 1012.7
20260906151556 90 255 0.0 3.5 0.00 0.00 0.00 54 1012.8
20260906150050 89 300 1.7 5.2 0.00 0.00 0.00 54 1012.7
20260906144550 89 260 1.7 5.2 0.00 0.00 0.00 55 1012.7
20260906143050 88 230 0.9 3.5 0.00 0.00 0.00 58 1012.6
20260906141543 86 247 0.0 3.5 0.00 0.00 0.00 61 1012.6
20260906140040 85 250 1.7 4.3 0.00 0.00 0.00 61 1012.6
20260906134537 83 136 0.9 4.3 0.00 0.00 0.00 65 1012.4
20260906133035 81 226 0.0 4.3 0.00 0.00 0.00 70 1012.3
20260906131542 78 231 0.0 2.6 0.00 0.00 0.00 71 1012.2
20260906130035 77 237 0.0 0.9 0.00 0.00 0.00 72 1012.1
20260906124531 77 238 0.0 1.7 0.00 0.00 0.00 71 1012.0
20260906123031 77 236 0.0 0.9 0.00 0.00 0.00 72 1011.8
20260906121527 75 203 0.0 0.0 0.00 0.00 0.00 73 1011.6
20260906120027 75 203 0.0 0.0 0.00 0.00 0.00 73 1011.5
20260906114526 76 203 0.0 0.0 0.00 0.00 0.00 72 1011.4
20260906113025 76 203 0.0 1.7 0.00 0.00 0.00 73 1011.3
20260906111523 76 207 0.0 0.9 0.00 0.00 0.00 72 1011.2
20260906110022 76 219 0.0 0.9 0.00 0.00 0.00 71 1011.1
20260906104533 76 171 0.0 0.9 0.00 0.00 0.00 71 1010.9
20260906103019 75 172 0.0 0.9 0.00 0.00 0.00 72 1010.8
20260906101518 75 160 0.0 0.0 0.00 0.00 0.00 73 1010.7
20260906100016 75 160 0.0 0.0 0.00 0.00 0.00 73 1010.7
20260906094533 75 160 0.0 0.0 0.00 0.00 0.00 74 1010.7
20260906093023 76 160 0.0 0.0 0.00 0.00 0.00 71 1010.7
20260906091513 76 160 0.0 0.0 0.00 0.00 0.00 71 1010.8
20260906090011 77 160 0.0 0.9 0.00 0.00 0.00 69 1010.6
20260906084510 77 160 0.9 0.9 0.00 0.00 0.00 68 1010.5
20260906083016 76 159 0.0 0.0 0.00 0.00 0.00 69 1010.5
20260906081511 77 159 0.0 1.7 0.00 0.00 0.00 69 1010.5
20260906080009 76 153 0.0 0.0 0.00 0.00 0.00 71 1010.5
20260906074508 76 153 0.0 1.7 0.00 0.00 0.00 70 1010.5
20260906073005 77 160 0.0 0.0 0.00 0.00 0.00 68 1010.4
20260906071504 78 160 0.0 0.0 0.00 0.00 0.00 68 1010.4
20260906070002 78 160 0.0 1.7 0.00 0.00 0.00 68 1010.5
20260906064503 78 160 0.0 0.0 0.00 0.00 0.00 68 1010.5
20260906063002 78 160 0.0 0.0 0.00 0.00 0.00 68 1010.4
20260906061600 78 160 0.0 0.0 0.00 0.00 0.00 67 1010.4
20260906060055 79 160 0.0 0.0 0.00 0.00 0.00 64 1010.5
20260906054552 80 160 0.0 0.9 0.00 0.00 0.00 63 1010.4
20260906053053 81 160 0.0 0.0 0.00 0.00 0.00 61 1010.2
20260906051545 82 160 0.0 0.0 0.00 0.00 0.00 59 1010.2
20260906050043 82 160 0.9 1.7 0.00 0.00 0.00 58 1010.2
20260906044543 83 158 0.0 1.7 0.00 0.00 0.00 57 1010.2
20260906043042 83 154 0.0 1.7 0.00 0.00 0.00 57 1010.4
20260906041541 82 172 0.9 4.3 0.00 0.00 0.00 59 1010.3
20260906040040 82 141 0.0 0.0 0.00 0.00 0.00 60 1010.2
20260906034545 82 141 0.0 0.0 0.00 0.00 0.00 59 1010.2
20260906033040 83 141 0.0 0.0 0.00 0.00 0.00 58 1010.1
20260906031538 83 141 0.0 0.0 0.00 0.00 0.00 57 1010.0
20260906030038 84 141 0.0 0.0 0.00 0.00 0.00 55 1010.0
20260906024544 85 141 0.0 0.0 0.00 0.00 0.00 53 1010.0
20260906023038 85 141 0.0 0.9 0.00 0.00 0.00 53 1009.9
20260906021537 86 141 0.0 0.9 0.00 0.00 0.00 52 1009.6
20260906020044 87 141 0.0 0.9 0.00 0.00 0.00 50 1009.5
20260906014549 88 141 0.0 0.9 0.00 0.00 0.00 48 1009.3
20260906013035 89 141 0.0 0.0 0.00 0.00 0.00 47 1009.0
20260906011539 90 141 0.0 0.0 0.00 0.00 0.00 44 1008.9
20260906010034 92 141 0.0 0.0 0.00 0.00 0.00 41 1008.8
20260906004538 94 141 0.0 0.9 0.00 0.00 0.00 39 1008.8
20260906003046 95 141 0.0 2.6 0.00 0.00 0.00 38 1008.6
20260906001532 97 136 0.9 3.5 0.00 0.00 0.00 36 1008.7
20260906000032 98 149 0.9 3.5 0.00 0.00 0.00 35 1008.5
20260905234632 98 96 1.7 5.2 0.00 0.00 0.00 35 1008.4
20260905233031 98 116 1.7 6.1 0.00 0.00 0.00 35 1008.3
20260905231536 98 169 3.5 8.7 0.00 0.00 0.00 35 1008.2
20260905230031 98 76 1.7 6.1 0.00 0.00 0.00 36 1008.2
20260905224533 99 184 1.7 8.7 0.00 0.00 0.00 34 1008.1
20260905223028 101 167 1.7 6.1 0.00 0.00 0.00 33 1008.0
20260905221526 100 124 2.6 7.0 0.00 0.00 0.00 34 1008.2
20260905220024 101 117 2.6 9.6 0.00 0.00 0.00 33 1008.3
20260905214521 100 226 0.9 8.7 0.00 0.00 0.00 34 1008.5
20260905213035 100 71 0.9 8.7 0.00 0.00 0.00 34 1008.7
20260905211517 100 169 1.7 7.0 0.00 0.00 0.00 35 1008.8
20260905210014 99 189 3.5 7.8 0.00 0.00 0.00 35 1009.0
20260905204517 98 219 0.9 10.4 0.00 0.00 0.00 37 1009.2
20260905203009 97 149 3.5 7.8 0.00 0.00 0.00 38 1009.5